When you browse on this site, cookies collect data to enhance your experience and personalize the content and advertising you see.
Visit our Privacy Policy to learn more. By continuing to use the site, you agree to this use of cookies and data.
  • In Portugal
  • List of Countries
  • For 7 days
  • Water Temperature
  • Satellite Maps
  • Weather Map
  • Weather Widgets
  • user-avatar
    Login

    Hourly Weather Mbandaka

    Today, 25 March, Monday

    Time Temperature Precipitation Wind Pressure Humidity
    00:00 +22°C° 0 mm 0 mps 730 mmHg 96%
    01:00 +24°C° 0 mm 1 mps 731 mmHg 95%
    02:00 +23°C° 0.6 mm 1 mps 731 mmHg 96%
    03:00 +23°C° 0.6 mm 1 mps 731 mmHg 97%
    04:00 +23°C° 0.6 mm 1 mps 730 mmHg 98%
    05:00 +24°C° 0 mm 1 mps 731 mmHg 97%
    06:00 +22°C° 0 mm 0 mps 731 mmHg 96%
    07:00 +25°C° 0 mm 1 mps 732 mmHg 93%
    08:00 +28°C° 0 mm 1 mps 732 mmHg 79%
    09:00 +31°C° 0 mm 1 mps 732 mmHg 66%
    10:00 +34°C° 0 mm 2 mps 732 mmHg 52%
    11:00 +36°C° 0 mm 2 mps 731 mmHg 47%
    12:00 +37°C° 0 mm 2 mps 731 mmHg 41%
    13:00 +39°C° 0 mm 1 mps 730 mmHg 36%
    14:00 +37°C° 0 mm 1 mps 729 mmHg 40%
    15:00 +35°C° 0 mm 1 mps 729 mmHg 45%
    16:00 +34°C° 0 mm 1 mps 728 mmHg 49%
    17:00 +33°C° 0 mm 1 mps 728 mmHg 53%
    18:00 +29°C° 0 mm 0 mps 729 mmHg 56%
    19:00 +28°C° 0 mm 0 mps 729 mmHg 60%
    20:00 +27°C° 0 mm 0 mps 729 mmHg 62%
    21:00 +27°C° 0 mm 0 mps 729 mmHg 64%
    22:00 +26°C° 0 mm 0 mps 730 mmHg 66%
    23:00 +27°C° 0 mm 1 mps 730 mmHg 68%

    Tomorrow, 26 March, Tuesday

    Time Temperature Precipitation Wind Pressure Humidity
    00:00 +27°C° 0 mm 1 mps 730 mmHg 70%
    01:00 +26°C° 0 mm 1 mps 730 mmHg 72%
    02:00 +26°C° 0.1 mm 1 mps 730 mmHg 77%
    03:00 +25°C° 0.1 mm 1 mps 730 mmHg 81%
    04:00 +25°C° 0.1 mm 1 mps 730 mmHg 85%
    05:00 +25°C° 0.1 mm 1 mps 730 mmHg 85%
    06:00 +23°C° 0.1 mm 0 mps 731 mmHg 85%
    07:00 +24°C° 0.1 mm 0 mps 731 mmHg 85%
    08:00 +28°C° 0 mm 1 mps 732 mmHg 74%
    09:00 +31°C° 0 mm 2 mps 732 mmHg 63%
    10:00 +34°C° 0 mm 2 mps 733 mmHg 52%
    11:00 +36°C° 0.1 mm 2 mps 732 mmHg 48%
    12:00 +37°C° 0.1 mm 2 mps 732 mmHg 44%
    13:00 +37°C° 0.1 mm 1 mps 731 mmHg 40%
    14:00 +36°C° 0 mm 1 mps 730 mmHg 45%
    15:00 +35°C° 0 mm 1 mps 730 mmHg 49%
    16:00 +33°C° 0 mm 1 mps 730 mmHg 54%
    17:00 +31°C° 0.1 mm 1 mps 730 mmHg 63%
    18:00 +29°C° 0.1 mm 1 mps 730 mmHg 72%
    19:00 +27°C° 0.1 mm 1 mps 730 mmHg 82%
    20:00 +27°C° 0 mm 1 mps 730 mmHg 85%
    21:00 +26°C° 0 mm 1 mps 731 mmHg 89%
    22:00 +25°C° 0 mm 1 mps 731 mmHg 93%
    23:00 +23°C° 0.1 mm 0 mps 731 mmHg 93%

    Day after tomorrow, 27 March, Wednesday

    Time Temperature Precipitation Wind Pressure Humidity
    00:00 +23°C° 0.1 mm 0 mps 731 mmHg 93%
    01:00 +23°C° 0.1 mm 0 mps 732 mmHg 93%
    02:00 +23°C° 0.2 mm 0 mps 731 mmHg 94%
    03:00 +22°C° 0.2 mm 0 mps 731 mmHg 95%
    04:00 +22°C° 0.2 mm 0 mps 731 mmHg 96%
    05:00 +23°C° 0.1 mm 0 mps 731 mmHg 95%
    06:00 +23°C° 0.1 mm 0 mps 732 mmHg 93%
    07:00 +24°C° 0.1 mm 0 mps 732 mmHg 92%
    08:00 +25°C° 0.3 mm 0 mps 733 mmHg 86%
    09:00 +27°C° 0.3 mm 0 mps 733 mmHg 80%
    10:00 +31°C° 0.3 mm 1 mps 734 mmHg 73%
    11:00 +32°C° 1 mm 1 mps 733 mmHg 68%
    12:00 +31°C° 1 mm 0 mps 733 mmHg 62%
    13:00 +32°C° 1 mm 0 mps 732 mmHg 57%
    14:00 +32°C° 0 mm 0 mps 731 mmHg 53%
    15:00 +32°C° 0 mm 0 mps 731 mmHg 48%
    16:00 +35°C° 0 mm 1 mps 730 mmHg 44%
    17:00 +32°C° 0 mm 1 mps 731 mmHg 52%
    18:00 +30°C° 0 mm 1 mps 731 mmHg 60%
    19:00 +26°C° 0 mm 0 mps 731 mmHg 69%
    20:00 +25°C° 0 mm 0 mps 731 mmHg 73%
    21:00 +24°C° 0 mm 0 mps 732 mmHg 78%
    22:00 +24°C° 0 mm 0 mps 732 mmHg 83%
    23:00 +23°C° 0 mm 0 mps 732 mmHg 84%

    28 March, Thursday

    Time Temperature Precipitation Wind Pressure Humidity
    00:00 +23°C° 0 mm 0 mps 731 mmHg 86%
    01:00 +23°C° 0 mm 0 mps 731 mmHg 87%
    02:00 +22°C° 0 mm 0 mps 731 mmHg 88%
    03:00 +22°C° 0 mm 0 mps 730 mmHg 88%
    04:00 +22°C° 0 mm 0 mps 730 mmHg 88%
    05:00 +22°C° 0 mm 0 mps 731 mmHg 86%
    06:00 +23°C° 0 mm 0 mps 732 mmHg 83%
    07:00 +24°C° 0 mm 0 mps 733 mmHg 80%
    08:00 +27°C° 0 mm 1 mps 734 mmHg 76%
    09:00 +28°C° 0 mm 1 mps 734 mmHg 72%
    10:00 +29°C° 0 mm 2 mps 735 mmHg 68%
    11:00 +30°C° 0 mm 2 mps 734 mmHg 62%
    12:00 +32°C° 0 mm 2 mps 733 mmHg 55%
    13:00 +35°C° 0 mm 2 mps 732 mmHg 49%
    14:00 +34°C° 0 mm 1 mps 732 mmHg 47%
    15:00 +34°C° 0 mm 1 mps 731 mmHg 46%
    16:00 +32°C° 0 mm 0 mps 730 mmHg 45%
    17:00 +30°C° 0 mm 0 mps 730 mmHg 51%
    18:00 +28°C° 0 mm 0 mps 730 mmHg 58%
    19:00 +26°C° 0 mm 0 mps 730 mmHg 64%
    20:00 +25°C° 0 mm 0 mps 730 mmHg 66%
    21:00 +25°C° 0 mm 0 mps 730 mmHg 69%
    22:00 +24°C° 0 mm 0 mps 731 mmHg 71%
    23:00 +23°C° 0 mm 0 mps 730 mmHg 73%

    29 March, Friday

    Time Temperature Precipitation Wind Pressure Humidity
    00:00 +23°C° 0 mm 0 mps 730 mmHg 75%
    01:00 +22°C° 0 mm 0 mps 729 mmHg 77%
    02:00 +22°C° 0 mm 0 mps 730 mmHg 77%
    03:00 +22°C° 0 mm 0 mps 730 mmHg 77%
    04:00 +22°C° 0 mm 0 mps 730 mmHg 78%
    05:00 +23°C° 0 mm 0 mps 731 mmHg 77%
    06:00 +25°C° 0 mm 1 mps 731 mmHg 76%
    07:00 +26°C° 0 mm 1 mps 732 mmHg 76%
    08:00 +27°C° 0 mm 1 mps 732 mmHg 71%
    09:00 +28°C° 0 mm 1 mps 732 mmHg 67%
    10:00 +30°C° 0 mm 1 mps 732 mmHg 63%
    11:00 +32°C° 0 mm 1 mps 731 mmHg 53%
    12:00 +36°C° 0 mm 2 mps 730 mmHg 44%
    13:00 +39°C° 0 mm 2 mps 730 mmHg 34%
    14:00 +39°C° 0 mm 1 mps 729 mmHg 34%
    15:00 +39°C° 0 mm 1 mps 728 mmHg 34%
    16:00 +39°C° 0 mm 1 mps 728 mmHg 34%
    17:00 +35°C° 0 mm 1 mps 728 mmHg 41%
    18:00 +32°C° 0 mm 1 mps 729 mmHg 48%
    19:00 +30°C° 0 mm 1 mps 729 mmHg 56%
    20:00 +29°C° 0 mm 1 mps 729 mmHg 59%
    21:00 +28°C° 0 mm 1 mps 730 mmHg 62%
    22:00 +27°C° 0 mm 1 mps 730 mmHg 66%
    23:00 +27°C° 0 mm 1 mps 729 mmHg 67%

    30 March, Saturday

    Time Temperature Precipitation Wind Pressure Humidity
    00:00 +26°C° 0 mm 1 mps 729 mmHg 69%
    01:00 +26°C° 0 mm 1 mps 729 mmHg 70%
    02:00 +25°C° 0 mm 1 mps 729 mmHg 71%
    03:00 +25°C° 0 mm 1 mps 729 mmHg 72%
    04:00 +25°C° 0 mm 1 mps 729 mmHg 72%
    05:00 +26°C° 0.2 mm 1 mps 729 mmHg 72%
    06:00 +26°C° 0.2 mm 1 mps 730 mmHg 72%
    07:00 +27°C° 0.2 mm 1 mps 730 mmHg 72%
    08:00 +30°C° 0 mm 1 mps 731 mmHg 59%
    09:00 +34°C° 0 mm 1 mps 731 mmHg 46%
    10:00 +38°C° 0 mm 2 mps 731 mmHg 33%
    11:00 +40°C° 0 mm 1 mps 730 mmHg 30%
    12:00 +42°C° 0 mm 1 mps 729 mmHg 27%
    13:00 +44°C° 0 mm 1 mps 728 mmHg 24%
    14:00 +41°C° 0 mm 1 mps 728 mmHg 30%
    15:00 +39°C° 0 mm 1 mps 727 mmHg 36%
    16:00 +33°C° 0 mm 0 mps 727 mmHg 43%
    17:00 +32°C° 0 mm 0 mps 727 mmHg 46%
    18:00 +30°C° 0 mm 0 mps 728 mmHg 50%
    19:00 +29°C° 0 mm 0 mps 728 mmHg 54%
    20:00 +28°C° 0 mm 0 mps 728 mmHg 58%
    21:00 +27°C° 0 mm 0 mps 728 mmHg 62%
    22:00 +26°C° 0 mm 0 mps 729 mmHg 66%
    23:00 +26°C° 0 mm 0 mps 728 mmHg 68%
    Show more